"Pseudo-MPEC" for P112hFv

Created 2020 Jul 11 10:07:08 UT using Find_Orb

Click here for an explanation of pseudo-MPECs

 
 Astrometry: 
     P112hFv  C2020 06 29]:L=2,0VB@Vaq+k!GKfDlG*Xe51H=ncieuOO+KJ#'1u2P3NWt4XvF51
     P112hFv  C2020 06 29Sma!10dTu9^Ky/uk,QW.(k6x16ilAstrometryi7.kredacted;/F51
     P112hFv  C2020 06 29V9#clickn$9XoydbFqxDtc;0SaDoEF3.V'1KEg)9xld$hereT0P-F51
     P112hFv  C2020 07 01.JpIZIe4GZYmHhJOSONuXAuV494h#uehF5#oT7forq4Kd\mh1F=:F51
     P112hFv  C2020 07 01uu[J+oct8@explanation8g,'3u*]OuTcFrF9a1:X%iTa:90#3DLF51

Station data:
(F51) Pan-STARRS 1, Haleakala  (N20.707235 W156.255910)  US/Hawaii.
   Observers N. Primak, A. Schultz, S. Watters, J. Thiel, T. Goggia. Measurer
   PS1 Science Consortium. 1.8-m Ritchey-Chrétien + CCD.

Orbital elements:  P112hFv
   Perihelion 2020 Jul 9.294910 +/- 51.4 TT =  7:04:40 (JD 2459039.794910)
Epoch 2020 Jul  1.0 TT = JDT 2459031.5   Earth MOID: 0.4545   Ma: 0.0807
M 357.64145159 +/- 24               (J2000 ecliptic)          AutoNEOCP
n   0.28433682 +/- 0.226            Peri.   40.86579 +/- 56
a   2.29041394 +/- 1.22             Node   259.23705 +/- 14
e   0.3587355 +/- 0.233             Incl.    2.86011 +/- 1.1
P   3.47                   H 21.6   G  0.15   U 11.7  SR
q 1.46876097 +/- 0.347    Q 3.11206691 +/- 30.7
From 5 observations 2020 June 29-July 1; mean residual 0".13
Residuals in arcseconds: 
200629 F51  .04-  .05+    200629 F51  .04+  .07+    200701 F51  .15+  .23-    
200629 F51  .00   .12-    200701 F51  .15-  .23+    

Ephemerides (geocentric):
Date (UTC) HH   RA              Dec         delta   r     elong  mag " sig PA
---- -- -- --  -------------   -----------  ------ ------ -----  --- ---- ---
2020 07 11 10  21 44 35.419   -07 51 04.55  .52261 1.4689 143.2 22.2 1108 141
2020 07 11 11  21 44 36.557   -07 50 42.76  .52248 1.4689 143.2 22.2 1117 141
2020 07 11 12  21 44 37.690   -07 50 20.99  .52235 1.4689 143.3 22.2 1126 141
2020 07 11 13  21 44 38.819   -07 49 59.25  .52223 1.4689 143.3 22.2 1135 141
2020 07 11 14  21 44 39.944   -07 49 37.53  .52210 1.4689 143.3 22.2 1144 141
2020 07 11 15  21 44 41.065   -07 49 15.84  .52197 1.4689 143.4 22.2 1153 141
2020 07 11 16  21 44 42.181   -07 48 54.17  .52184 1.4689 143.4 22.2 1162 141
2020 07 11 17  21 44 43.293   -07 48 32.52  .52172 1.4689 143.4 22.2 1171 141
2020 07 11 18  21 44 44.401   -07 48 10.90  .52159 1.4689 143.5 22.2 1180 141
2020 07 11 19  21 44 45.505   -07 47 49.30  .52146 1.4689 143.5 22.2 1189 141
2020 07 11 20  21 44 46.604   -07 47 27.73  .52134 1.4689 143.5 22.2 1199 141
2020 07 11 21  21 44 47.699   -07 47 06.18  .52121 1.4689 143.6 22.2 1208 141
2020 07 11 22  21 44 48.790   -07 46 44.66  .52108 1.4689 143.6 22.2 1217 141
2020 07 11 23  21 44 49.877   -07 46 23.16  .52096 1.4689 143.6 22.2 1226 141
2020 07 12 00  21 44 50.959   -07 46 01.69  .52083 1.4689 143.7 22.2 1236 141
2020 07 12 01  21 44 52.037   -07 45 40.24  .52071 1.4689 143.7 22.2 1245 140
2020 07 12 02  21 44 53.111   -07 45 18.82  .52058 1.4690 143.7 22.2 1254 140
2020 07 12 03  21 44 54.181   -07 44 57.42  .52046 1.4690 143.8 22.2 1264 140
2020 07 12 04  21 44 55.246   -07 44 36.05  .52033 1.4690 143.8 22.2 1273 140
2020 07 12 05  21 44 56.308   -07 44 14.70  .52021 1.4690 143.8 22.2 1283 140
2020 07 12 06  21 44 57.365   -07 43 53.38  .52008 1.4690 143.9 22.2 1293 140
2020 07 12 07  21 44 58.417   -07 43 32.08  .51996 1.4690 143.9 22.2 1302 140
2020 07 12 08  21 44 59.466   -07 43 10.81  .51983 1.4690 143.9 22.2 1312 140
2020 07 12 09  21 45 00.510   -07 42 49.56  .51971 1.4690 144.0 22.2 1321 140
2020 07 12 10  21 45 01.550   -07 42 28.33  .51959 1.4690 144.0 22.2 1331 140
2020 07 12 11  21 45 02.586   -07 42 07.13  .51946 1.4690 144.0 22.1 1341 140
2020 07 12 12  21 45 03.618   -07 41 45.96  .51934 1.4690 144.1 22.1 1351 140
2020 07 12 13  21 45 04.645   -07 41 24.81  .51922 1.4690 144.1 22.1 1361 140
2020 07 12 14  21 45 05.668   -07 41 03.69  .51909 1.4690 144.1 22.1 1370 140
2020 07 12 15  21 45 06.687   -07 40 42.59  .51897 1.4690 144.2 22.1 1380 140
2020 07 12 16  21 45 07.701   -07 40 21.52  .51885 1.4690 144.2 22.1 1390 140
2020 07 12 17  21 45 08.712   -07 40 00.47  .51872 1.4690 144.2 22.1 1400 140
2020 07 12 18  21 45 09.718   -07 39 39.45  .51860 1.4691 144.3 22.1 1410 140
2020 07 12 19  21 45 10.720   -07 39 18.45  .51848 1.4691 144.3 22.1 1420 140
2020 07 12 20  21 45 11.718   -07 38 57.48  .51836 1.4691 144.3 22.1 1431 140
2020 07 12 21  21 45 12.711   -07 38 36.54  .51824 1.4691 144.4 22.1 1441 140
2020 07 12 22  21 45 13.700   -07 38 15.62  .51811 1.4691 144.4 22.1 1451 140
2020 07 12 23  21 45 14.685   -07 37 54.72  .51799 1.4691 144.4 22.1 1461 140
2020 07 13 00  21 45 15.666   -07 37 33.85  .51787 1.4691 144.5 22.1 1471 140
2020 07 13 01  21 45 16.643   -07 37 13.01  .51775 1.4691 144.5 22.1 1482 140
2020 07 13 02  21 45 17.615   -07 36 52.19  .51763 1.4691 144.5 22.1 1492 140
2020 07 13 03  21 45 18.583   -07 36 31.40  .51751 1.4691 144.5 22.1 1503 140
2020 07 13 04  21 45 19.547   -07 36 10.63  .51739 1.4691 144.6 22.1 1513 140
2020 07 13 05  21 45 20.507   -07 35 49.89  .51727 1.4691 144.6 22.1 1523 140
2020 07 13 06  21 45 21.462   -07 35 29.17  .51715 1.4691 144.6 22.1 1534 140
2020 07 13 07  21 45 22.413   -07 35 08.48  .51703 1.4692 144.7 22.1 1544 140
2020 07 13 08  21 45 23.360   -07 34 47.82  .51691 1.4692 144.7 22.1 1555 140
2020 07 13 09  21 45 24.303   -07 34 27.18  .51679 1.4692 144.7 22.1 1566 140